N8QQ Weather Reports


Display with metric or nautical units.
time (UTC)temp
F
wind
direction
speed
MPH
gust
MPH
rain 1hr
in
rain 24hr
in
rain mn
in
humidity
%
barometer
mb
20260505085026 62 0.0 0.0 0.00 0.00 0.00 69 1002.8
20260505084029 63 157 0.0 1.0 0.00 0.00 0.00 69 1002.7
20260505083032 63 134 0.0 2.0 0.00 0.00 0.00 69 1002.3
20260505082038 63 0.0 1.0 0.00 0.00 0.00 68 1002.0
20260505081020 64 171 1.0 2.0 0.00 0.00 0.00 67 1002.1
20260505080023 64 191 0.0 1.0 0.00 0.00 0.00 66 1002.3
20260505075027 64 160 1.0 6.0 0.00 0.00 0.00 65 1002.3
20260505074024 64 195 2.0 6.0 0.00 0.00 0.00 65 1002.1
20260505073015 64 213 1.0 3.0 0.00 0.00 0.00 65 1001.8
20260505072039 65 101 2.0 4.0 0.00 0.00 0.00 65 1001.8
20260505071016 65 275 2.0 6.0 0.00 0.00 0.00 64 1001.8
20260505070026 64 265 1.0 3.0 0.00 0.00 0.00 65 1001.8
20260505065028 64 197 2.0 4.0 0.00 0.00 0.00 65 1001.8
20260505064051 65 232 1.0 3.0 0.00 0.00 0.00 64 1001.8
20260505063016 65 185 2.0 6.0 0.00 0.00 0.00 64 1001.7
20260505062040 65 35 2.0 3.0 0.00 0.00 0.00 64 1001.6
20260505061023 65 90 2.0 6.0 0.00 0.00 0.00 64 1001.5
20260505060026 65 147 2.0 8.0 0.00 0.00 0.00 64 1001.5
20260505055028 65 219 1.0 4.0 0.00 0.00 0.00 64 1001.3
20260505054031 66 70 2.0 8.0 0.00 0.00 0.00 63 1001.2
20260505053017 66 218 1.0 4.0 0.00 0.00 0.00 62 1001.2
20260505052039 66 77 2.0 5.0 0.00 0.00 0.00 62 1001.2
20260505051023 66 139 1.0 3.0 0.00 0.00 0.00 62 1001.3
20260505041023 67 27 2.0 3.0 0.00 0.00 0.00 63 1001.8
20260505040021 67 78 2.0 4.0 0.00 0.00 0.00 63 1001.9
20260505035018 67 152 2.0 4.0 0.00 0.00 0.00 63 1002.0
20260505034036 66 115 1.0 3.0 0.00 0.00 0.00 65 1001.9
20260505033019 66 105 1.0 6.0 0.00 0.00 0.00 65 1001.8
20260505032042 66 146 1.0 2.0 0.00 0.00 0.00 66 1001.9
20260505031025 66 79 1.0 2.0 0.00 0.00 0.00 67 1001.7
20260505030028 65 28 0.0 2.0 0.00 0.00 0.00 67 1001.6
20260505025151 65 194 1.0 4.0 0.00 0.00 0.00 68 1001.4
20260505024016 65 32 0.0 1.0 0.00 0.00 0.00 68 1001.6
20260505023019 65 0.0 0.0 0.00 0.00 0.00 69 1001.3
20260505022023 65 233 0.0 3.0 0.00 0.00 0.00 68 1001.0
20260505021025 65 270 0.0 1.0 0.00 0.00 0.00 68 1000.9
20260505020028 65 0.0 0.0 0.00 0.00 0.00 68 1000.7
20260505015032 66 286 0.0 1.0 0.00 0.00 0.00 67 1000.7
20260505014037 66 0.0 0.0 0.00 0.00 0.00 66 1000.5
20260505013040 67 0.0 0.0 0.00 0.00 0.00 65 1000.3
20260505012023 67 157 0.0 1.0 0.00 0.00 0.00 64 1000.6
20260505011026 68 136 1.0 4.0 0.00 0.00 0.00 64 1000.6
20260505010050 68 199 0.0 3.0 0.00 0.00 0.00 62 1000.5
20260505005015 69 105 1.0 2.0 0.00 0.00 0.00 61 1000.6
20260505004023 69 0.0 0.0 0.00 0.00 0.00 60 1000.5
20260505003021 70 130 0.0 2.0 0.00 0.00 0.00 58 1000.5
20260505002019 71 215 1.0 2.0 0.00 0.00 0.00 57 1000.6
20260505001016 71 80 1.0 2.0 0.00 0.00 0.00 56 1000.7
20260505000031 72 137 0.0 1.0 0.00 0.00 0.00 55 1000.8
20260504235036 73 87 0.0 2.0 0.00 0.00 0.00 54 1000.9
20260504234031 73 96 2.0 4.0 0.00 0.00 0.00 53 1001.2
20260504233029 73 189 2.0 4.0 0.00 0.00 0.00 52 1001.3
20260504232032 74 127 2.0 5.0 0.00 0.00 0.00 51 1001.2
20260504231017 75 193 2.0 5.0 0.00 0.00 0.00 49 1001.2
20260504230019 76 180 4.0 12.0 0.00 0.00 0.00 47 1001.4
20260504225023 75 186 3.0 7.0 0.00 0.00 0.00 49 1001.4
20260504224026 76 146 3.0 8.0 0.00 0.00 0.00 49 1001.4
20260504223050 76 165 2.0 3.0 0.00 0.00 0.00 54 1001.5
20260504222054 76 86 0.0 4.0 0.00 0.00 0.00 55 1001.5
20260504221018 75 224 0.0 2.0 0.00 0.00 0.00 55 1001.5
20260504220020 75 146 0.0 1.0 0.00 0.00 0.00 54 1001.5
20260504215023 75 169 0.0 2.0 0.00 0.00 0.00 53 1001.9
20260504214027 76 180 1.0 3.0 0.00 0.00 0.00 52 1002.1
20260504213030 77 194 2.0 5.0 0.00 0.00 0.00 50 1002.3
20260504212015 77 185 1.0 3.0 0.00 0.00 0.00 51 1002.2
20260504211038 76 183 3.0 5.0 0.00 0.00 0.00 49 1002.3
20260504210021 77 242 3.0 5.0 0.00 0.00 0.00 49 1002.5
20260504205038 77 187 3.0 5.0 0.00 0.00 0.00 51 1002.5
20260504204035 76 207 3.0 6.0 0.00 0.00 0.00 53 1002.8
20260504203030 77 220 3.0 6.0 0.00 0.00 0.00 52 1003.0
20260504202016 75 157 2.0 5.0 0.00 0.00 0.00 55 1002.9
20260504201024 75 163 3.0 6.0 0.00 0.00 0.00 54 1003.1
20260504200022 0 180 1.0 1.0 0.00 0.00 0.00 1003.2
20260504195025 76 184 2.0 4.0 0.00 0.00 0.00 54 1003.3
20260504194028 76 197 2.0 5.0 0.00 0.00 0.00 56 1003.5
20260504193052 75 161 3.0 6.0 0.00 0.00 0.00 56 1004.0
20260504192037 74 213 4.0 8.0 0.00 0.00 0.00 57 1003.9
20260504191020 73 242 0.0 3.0 0.00 0.00 0.00 61 1004.0
20260504190023 73 194 3.0 5.0 0.00 0.00 0.00 61 1004.2
20260504185026 70 210 2.0 6.0 0.00 0.00 0.00 63 1004.3
20260504184029 70 174 3.0 5.0 0.00 0.00 0.00 65 1004.3
20260504183033 70 96 1.0 3.0 0.00 0.00 0.00 64 1004.2
20260504182038 71 216 2.0 4.0 0.00 0.00 0.00 62 1003.9
20260504181021 70 177 2.0 5.0 0.00 0.00 0.00 62 1003.8
20260504180024 71 124 3.0 5.0 0.00 0.00 0.00 60 1003.8
20260504175047 72 115 1.0 3.0 0.00 0.00 0.00 60 1003.7
20260504174045 73 129 2.0 6.0 0.00 0.00 0.00 58 1003.5
20260504173016 73 104 2.0 4.0 0.00 0.00 0.00 59 1003.7
20260504172019 72 342 2.0 3.0 0.00 0.00 0.00 61 1003.6
20260504171037 71 224 2.0 4.0 0.00 0.00 0.00 62 1003.5
20260504151024 67 273 1.0 4.0 0.00 0.00 0.00 65 1004.4
20260504141024 65 181 1.0 4.0 0.00 0.00 0.00 63 1004.5